This demonstration page uses our WeatherBlox Daily Observations layout. Learn more.

Hourly Observations for April 19, 2015

Temp ( °F °C ) Dew Point ( °F °C ) Humidity (%) Winds ( mph kmh ) Pressure ( in mb ) Visibility ( mi km ) Precip ( " mm )
12:15 am 00:15 Partly Cloudy 51 10.6 47 8.5 87 87 ESE 3 6 29.77 1008 10 16.0934 0 0
12:35 am 00:35 Clear 51 10.6 47 8.4 86 86 Calm 29.77 1008 10 16.0934 0 0
12:55 am 00:55 Partly Cloudy 51 10.5 47 8.4 87 87 SW 5 7 29.77 1008 10 16.0934 0 0
1:15 am 01:15 Cloudy 51 10.5 47 8.5 88 88 W 9 15 29.77 1008 10 16.0934 0 0
1:35 am 01:35 Cloudy 51 10.7 47 8.4 86 86 W 10 17 29.77 1008 10 16.0934 0 0
1:55 am 01:55 Cloudy 52 11 47 8.3 84 84 W 9 15 29.77 1008 10 16.0934 0 0
2:15 am 02:15 Cloudy 52 10.9 47 8.5 85 85 NW 6 9 29.77 1008 10 16.0934 0 0
2:35 am 02:35 Cloudy with Light Rain 51 10.7 48 8.8 88 88 N 8 13 29.8 1009 10 16.0934 0 0
2:55 am 02:55 Cloudy 52 10.9 47 8.3 84 84 NNW 7 11 29.77 1008 10 16.0934 0 0
3:15 am 03:15 Cloudy 51 10.5 47 8.5 88 88 N 3 6 29.77 1008 10 16.0934 0 0
3:35 am 03:35 Cloudy 51 10.5 47 8.5 88 88 Calm 29.77 1008 10 16.0934 0 0
3:55 am 03:55 Cloudy 50 10.2 47 8.5 89 89 Calm 29.8 1009 10 16.0934 0 0
4:15 am 04:15 Cloudy with Drizzle 51 10.3 47 8.6 89 89 Calm 29.8 1009 10 16.0934 0 0
4:35 am 04:35 Cloudy with Light Drizzle 51 10.3 48 8.8 91 91 Calm 29.8 1009 10 16.0934 0 0
4:55 am 04:55 Cloudy with Light Rain 50 10.2 48 8.7 91 91 NNW 3 6 29.8 1009 10 16.0934 0 0
5:15 am 05:15 Cloudy with Light Rain 50 10.1 48 8.8 92 92 NNW 3 6 29.8 1009 10 16.0934 0 0
5:35 am 05:35 Cloudy with Light Rain 50 10.1 48 9 93 93 NNW 3 6 29.8 1009 10 16.0934 0.01 0.254
5:55 am 05:55 Cloudy with Light Rain 50 10.2 48 8.9 92 92 NNW 7 11 29.8 1009 10 16.0934 0.01 0.254
6:15 am 06:15 Cloudy with Light Rain 50 10.1 47 8.6 91 91 NNW 7 11 29.8 1009 10 16.0934 0.01 0.254
6:35 am 06:35 Cloudy with Drizzle 50 10.1 47 8.6 91 91 N 7 11 29.8 1009 10 16.0934 0.02 0.508
6:55 am 06:55 Cloudy with Light Rain 50 10 47 8.4 90 90 N 13 20 29.83 1010 10 16.0934 0.02 0.508
7:15 am 07:15 Cloudy with Light Rain 49 9.6 46 8 90 90 N 12 19 29.83 1010 10 16.0934 0.02 0.508
7:35 am 07:35 Cloudy with Light Rain 49 9.5 46 8 90 90 N 17 28 29.83 1010 10 16.0934 0.03 0.762
7:55 am 07:55 Cloudy with Light Rain 48 9.1 45 7.4 89 89 N 22 35 29.85 1011 10 16.0934 0.06 1.524
8:15 am 08:15 Cloudy with Light Rain 48 8.7 45 7.1 90 90 N 18 30 29.85 1011 10 16.0934 0.01 0.254
8:35 am 08:35 Cloudy with Light Rain 47 8.6 45 7.1 90 90 N 18 30 29.85 1011 10 16.0934 0.02 0.508
8:55 am 08:55 Cloudy with Light Rain 47 8.6 45 7 90 90 N 21 33 29.85 1011 10 16.0934 0.03 0.762
9:15 am 09:15 Cloudy with Light Rain 47 8.5 44 6.9 90 90 N 22 35 29.88 1012 7 11.26538 0.03 0.762
9:35 am 09:35 Cloudy with Light Rain 46 7.8 42 5.6 86 86 N 31 50 29.91 1013 5 8.0467 0.05 1.27
9:55 am 09:55 Cloudy with Light Rain 45 7.1 40 4.7 85 85 N 32 52 29.94 1014 7 11.26538 0.07 1.778
10:15 am 10:15 Cloudy with Light Rain 44 6.6 38 3.2 79 79 N 32 52 29.94 1014 7 11.26538 0.02 0.508
10:35 am 10:35 Cloudy with Light Rain 44 6.5 36 2.1 74 74 N 32 52 29.97 1015 5 8.0467 0.02 0.508
10:55 am 10:55 Cloudy with Rain 44 6.5 35 1.8 72 72 N 28 44 29.97 1015 7 11.26538 0.03 0.762
11:15 am 11:15 Cloudy with Rain 44 6.4 35 1.9 73 73 N 30 48 29.97 1015 10 16.0934 0 0
11:35 am 11:35 Cloudy with Light Rain 43 6.2 34 1.3 71 71 N 35 56 30 1016 10 16.0934 0 0
11:55 am 11:55 Cloudy 45 7 32 0.2 62 62 N 29 46 29.97 1015 10 16.0934 0 0
12:15 pm 12:15 Cloudy 47 8.2 32 -0.2 56 56 N 29 46 29.97 1015 10 16.0934 0 0
12:35 pm 12:35 Cloudy 47 8.5 34 1 60 60 N 20 31 29.94 1014 10 16.0934 0 0
12:55 pm 12:55 Mostly Cloudy 47 8.6 31 -0.4 54 54 N 25 41 29.94 1014 10 16.0934 0 0
1:15 pm 13:15 Cloudy 47 8.5 33 0.5 57 57 N 20 31 29.94 1014 10 16.0934 0 0
1:35 pm 13:35 Cloudy 47 8.6 32 0.2 56 56 NNW 18 30 29.94 1014 10 16.0934 0 0
1:55 pm 13:55 Cloudy 48 9 33 0.4 55 55 N 21 33 29.91 1013 10 16.0934 0 0
2:15 pm 14:15 Cloudy 49 9.2 33 0.5 55 55 N 20 31 29.91 1013 10 16.0934 0 0
2:35 pm 14:35 Cloudy 49 9.4 33 0.4 54 54 N 17 28 29.91 1013 10 16.0934 0 0
2:55 pm 14:55 Mostly Cloudy 50 10.2 33 0.5 51 51 N 17 28 29.91 1013 10 16.0934 0 0
3:15 pm 15:15 Mostly Cloudy 52 10.9 31 -0.3 46 46 N 22 35 29.91 1013 10 16.0934 0 0
3:35 pm 15:35 Mostly Cloudy 53 11.5 29 -1.5 41 41 NNW 21 33 29.85 1011 10 16.0934 0 0
3:55 pm 15:55 Mostly Cloudy 54 12.2 29 -1.8 38 38 NNW 26 43 29.85 1011 10 16.0934 0 0
4:15 pm 16:15 Mostly Cloudy 54 12.1 28 -2.1 37 37 NNW 22 35 29.85 1011 10 16.0934 0 0
4:35 pm 16:35 Mostly Cloudy 53 11.5 28 -2.4 38 38 NNW 23 37 29.85 1011 10 16.0934 0 0
4:55 pm 16:55 Mostly Cloudy 53 11.7 28 -2 39 39 NNW 22 35 29.85 1011 10 16.0934 0 0
5:15 pm 17:15 Partly Cloudy 54 12.1 28 -2.2 37 37 NNW 22 35 29.85 1011 10 16.0934 0 0
5:35 pm 17:35 Mostly Cloudy 55 12.6 29 -1.8 37 37 NNW 23 37 29.85 1011 10 16.0934 0 0
5:55 pm 17:55 Mostly Cloudy 54 12.2 28 -2.1 37 37 NNW 20 31 29.85 1011 10 16.0934 0 0
6:15 pm 18:15 Mostly Cloudy 52 11.1 30 -1.1 43 43 NNW 17 28 29.88 1012 10 16.0934 0 0
6:35 pm 18:35 Partly Cloudy 52 11.2 29 -1.9 40 40 NNW 18 30 29.88 1012 10 16.0934 0 0
6:55 pm 18:55 Partly Cloudy 50 10.2 29 -1.6 44 44 NNW 18 30 29.88 1012 10 16.0934 0 0
7:15 pm 19:15 Mostly Cloudy 51 10.3 30 -1.3 45 45 NNW 21 33 29.88 1012 10 16.0934 0 0
7:35 pm 19:35 Mostly Cloudy 50 10.1 30 -1 46 46 NNW 16 26 29.88 1012 10 16.0934 0 0
7:55 pm 19:55 Mostly Cloudy 50 9.8 28 -2 44 44 NNW 18 30 29.88 1012 10 16.0934 0 0
8:15 pm 20:15 Partly Cloudy 47 8.5 29 -1.7 49 49 NNW 16 26 29.88 1012 10 16.0934 0 0
8:35 pm 20:35 Clear 46 7.8 30 -1 54 54 NNW 10 17 29.91 1013 10 16.0934 0 0
8:55 pm 20:55 Clear 45 7.1 30 -1 57 57 NNW 10 17 29.94 1014 10 16.0934 0 0
9:15 pm 21:15 Clear 44 6.7 30 -1 58 58 NNW 10 17 29.94 1014 10 16.0934 0 0
9:35 pm 21:35 Clear 43 6.1 30 -1 61 61 NW 8 13 29.94 1014 10 16.0934 0 0
9:55 pm 21:55 Clear 39 4.1 32 0 75 75 NW 7 11 29.97 1015 10 16.0934 0 0
10:15 pm 22:15 Clear 38 3.6 32 -0.1 77 77 NW 7 11 29.97 1015 10 16.0934 0 0
10:35 pm 22:35 Clear 39 3.7 31 -0.3 75 75 NW 7 11 29.97 1015 10 16.0934 0 0
10:55 pm 22:55 Clear 39 4 31 -0.3 74 74 WNW 7 11 29.97 1015 10 16.0934 0 0
11:15 pm 23:15 Clear 38 3.3 31 -0.5 76 76 NW 9 15 29.97 1015 10 16.0934 0 0
11:35 pm 23:35 Clear 37 2.7 31 -0.4 80 80 NW 8 13 30 1016 10 16.0934 0 0
11:55 pm 23:55 Clear 40 4.3 31 -0.7 70 70 NNW 12 19 30 1016 10 16.0934 0 0

Powered by AerisWeather